W0NKY-13 Weather Reports


time (UTC)temp
C
wind
direction
speed
KPH
gust
KPH
rain 1hr
cm
rain 24hr
cm
rain mn
cm
humidity
%
barometer
mb
20260509002518 17 52 1.6 4.8 0.00 0.03 0.03 55 1011.6
20260509001518 17 46 0.0 3.2 0.00 0.03 0.03 55 1011.5
20260509000518 17 50 0.0 3.2 0.00 0.03 0.03 53 1011.6
20260508235518 18 40 1.6 4.8 0.00 0.03 0.03 52 1011.7
20260508234536 18 38 1.6 4.8 0.00 0.03 0.03 51 1011.7
20260508233519 18 33 1.6 6.4 0.00 0.03 0.03 49 1011.6
20260508232519 18 5 1.6 4.8 0.00 0.03 0.03 49 1011.7
20260508231519 18 50 1.6 6.4 0.00 0.03 0.03 49 1011.8
20260508230516 18 19 1.6 8.0 0.00 0.03 0.03 49 1011.6
20260508225516 19 49 1.6 4.8 0.00 0.03 0.03 48 1011.6
20260508224520 19 51 1.6 4.8 0.00 0.03 0.03 50 1011.6
20260508223540 20 39 1.6 8.0 0.00 0.03 0.03 48 1011.5
20260508222519 20 15 1.6 8.0 0.00 0.03 0.03 45 1011.4
20260508221517 20 38 3.2 8.0 0.00 0.03 0.03 46 1011.4
20260508220517 20 10 1.6 6.4 0.00 0.03 0.03 44 1011.4
20260508215520 20 39 1.6 8.0 0.00 0.03 0.03 45 1011.3
20260508214517 20 60 3.2 6.4 0.00 0.03 0.03 44 1011.5
20260508213517 20 35 1.6 8.0 0.00 0.03 0.03 45 1011.5
20260508212517 20 82 1.6 4.8 0.00 0.03 0.03 45 1011.5
20260508211517 21 10 3.2 11.3 0.00 0.03 0.03 43 1011.6
20260508210517 21 22 3.2 8.0 0.00 0.03 0.03 42 1011.8
20260508205518 22 59 4.8 9.7 0.00 0.03 0.03 41 1012.0
20260508204518 22 15 3.2 9.7 0.00 0.03 0.03 42 1012.1
20260508203524 21 7 3.2 16.1 0.00 0.03 0.03 43 1012.2
20260508202518 21 22 1.6 6.4 0.00 0.03 0.03 44 1012.6
20260508201518 21 41 3.2 8.0 0.00 0.03 0.03 42 1012.6
20260508200518 20 3 3.2 11.3 0.00 0.03 0.03 44 1012.8
20260508195519 21 32 3.2 9.7 0.00 0.03 0.03 42 1012.9
20260508194516 21 358 3.2 14.5 0.00 0.03 0.03 42 1012.9
20260508193519 21 3 3.2 11.3 0.00 0.03 0.03 41 1013.0
20260508192539 21 82 3.2 8.0 0.00 0.03 0.03 43 1013.0
20260508191559 21 14 4.8 14.5 0.00 0.03 0.03 40 1013.2
20260508190516 22 21 4.8 9.7 0.00 0.03 0.03 39 1013.3
20260508185539 22 12 4.8 11.3 0.00 0.03 0.03 41 1013.4
20260508184520 23 360 4.8 16.1 0.00 0.03 0.03 39 1013.5
20260508183520 23 139 1.6 4.8 0.00 0.03 0.03 43 1013.8
20260508182537 23 351 3.2 11.3 0.00 0.03 0.03 42 1014.0
20260508181517 22 357 4.8 11.3 0.00 0.03 0.03 38 1014.2
20260508180517 23 46 3.2 9.7 0.00 0.03 0.03 42 1014.3
20260508175517 22 28 3.2 11.3 0.00 0.03 0.03 42 1014.5
20260508174517 23 22 3.2 8.0 0.03 0.03 0.03 39 1014.6
20260508173517 23 359 3.2 8.0 0.03 0.03 0.03 40 1014.8
20260508172518 22 67 3.2 9.7 0.03 0.03 0.03 41 1014.8
20260508171518 22 58 3.2 9.7 0.03 0.03 0.03 42 1015.2
20260508170518 22 61 3.2 9.7 0.03 0.03 0.03 41 1015.3
20260508165518 22 345 3.2 11.3 0.03 0.03 0.03 42 1015.5
20260508164538 22 344 3.2 11.3 0.00 0.00 0.00 42 1015.8
20260508163518 22 12 4.8 12.9 0.00 0.00 0.00 41 1015.9
20260508162519 22 57 3.2 12.9 0.00 0.00 0.00 42 1016.1
20260508161518 22 21 4.8 12.9 0.00 0.00 0.00 42 1016.3
20260508160519 22 50 3.2 9.7 0.00 0.00 0.00 41 1016.4
20260508155516 22 46 3.2 9.7 0.00 0.00 0.00 43 1016.4
20260508154519 22 22 3.2 8.0 0.00 0.00 0.00 44 1016.6
20260508153519 22 37 3.2 6.4 0.00 0.00 0.00 43 1016.8
20260508152519 22 131 3.2 9.7 0.00 0.00 0.00 42 1016.9
20260508151536 22 67 1.6 8.0 0.00 0.00 0.00 43 1017.0
20260508150517 21 21 3.2 9.7 0.00 0.00 0.00 43 1017.1
20260508145519 21 55 3.2 9.7 0.00 0.00 0.00 43 1017.2
20260508144520 21 27 3.2 8.0 0.00 0.00 0.00 42 1017.2
20260508143517 20 20 3.2 12.9 0.00 0.00 0.00 45 1017.3
20260508142517 20 21 3.2 9.7 0.00 0.00 0.00 43 1017.3
20260508141517 20 11 3.2 8.0 0.00 0.00 0.00 45 1017.4
20260508140517 18 354 3.2 8.0 0.00 0.00 0.00 47 1017.4
20260508135517 17 11 3.2 8.0 0.00 0.00 0.00 49 1017.5
20260508134518 16 14 3.2 12.9 0.00 0.00 0.00 51 1017.5
20260508133518 15 29 3.2 9.7 0.00 0.00 0.00 54 1017.5
20260508132518 13 1 3.2 6.4 0.00 0.00 0.00 58 1017.6
20260508131517 12 7 3.2 6.4 0.00 0.00 0.00 63 1017.6
20260508130518 11 22 3.2 8.0 0.00 0.00 0.00 66 1017.6
20260508125518 11 23 3.2 8.0 0.00 0.00 0.00 63 1017.5
20260508124518 10 54 1.6 4.8 0.00 0.00 0.00 67 1017.5
20260508123518 8 3 1.6 6.4 0.00 0.00 0.00 75 1017.4
20260508122518 7 349 1.6 6.4 0.00 0.00 0.00 77 1017.3
20260508121519 7 23 0.0 3.2 0.00 0.00 0.00 81 1017.2
20260508120539 6 6 1.6 3.2 0.00 0.00 0.00 82 1017.2
20260508115519 6 19 1.6 3.2 0.00 0.00 0.00 84 1017.2
20260508114536 5 12 3.2 4.8 0.00 0.00 0.00 89 1017.0
20260508113519 4 9 1.6 3.2 0.00 0.00 0.00 95 1016.9
20260508112519 3 26 0.0 1.6 0.00 0.00 0.00 95 1016.8
20260508111519 3 11 0.0 3.2 0.00 0.00 0.00 95 1016.8
20260508110516 3 30 0.0 3.2 0.00 0.00 0.00 95 1016.6
20260508104519 3 20 0.0 3.2 0.00 0.00 0.00 95 1016.5
20260508103520 3 6 0.0 3.2 0.00 0.00 0.00 95 1016.5
20260508102517 3 7 1.6 3.2 0.00 0.00 0.00 95 1016.5
20260508101517 3 32 0.0 1.6 0.00 0.00 0.00 95 1016.5
20260508100517 3 14 0.0 3.2 0.00 0.00 0.00 95 1016.6
20260508095520 3 29 0.0 3.2 0.00 0.00 0.00 95 1016.6
20260508094538 3 35 0.0 3.2 0.00 0.00 0.00 95 1016.5
20260508093517 3 28 1.6 3.2 0.00 0.00 0.00 95 1016.5
20260508092517 2 38 1.6 3.2 0.00 0.00 0.00 95 1016.5
20260508091538 2 16 0.0 1.6 0.00 0.00 0.00 95 1016.4
20260508090558 2 20 0.0 1.6 0.00 0.00 0.00 95 1016.4
20260508085518 2 33 0.0 3.2 0.00 0.00 0.00 95 1016.4
20260508084518 2 40 0.0 3.2 0.00 0.00 0.00 95 1016.4
20260508083518 3 21 0.0 1.6 0.00 0.00 0.00 95 1016.3
20260508082518 3 32 0.0 3.2 0.00 0.00 0.00 95 1016.3
20260508081519 3 24 0.0 3.2 0.00 0.00 0.00 95 1016.3
20260508080539 3 19 0.0 1.6 0.00 0.00 0.00 95 1016.3
20260508075518 3 22 0.0 3.2 0.00 0.00 0.00 95 1016.2
20260508074516 3 33 0.0 1.6 0.00 0.00 0.00 95 1016.3
20260508073539 3 27 1.6 3.2 0.00 0.00 0.00 94 1016.3
20260508072519 3 10 1.6 3.2 0.00 0.00 0.00 94 1016.1
20260508071519 3 18 0.0 3.2 0.00 0.00 0.00 94 1016.2
20260508070516 3 6 0.0 1.6 0.00 0.00 0.00 94 1016.4
20260508065516 3 359 0.0 1.6 0.00 0.00 0.00 94 1016.6
20260508064519 3 27 0.0 3.2 0.00 0.00 0.00 94 1016.8
20260508063519 3 29 0.0 1.6 0.00 0.00 0.00 94 1016.9
20260508062517 3 21 0.0 1.6 0.00 0.00 0.00 94 1017.0
20260508061517 3 25 0.0 1.6 0.00 0.00 0.00 94 1017.0
20260508060517 3 30 0.0 1.6 0.00 0.00 0.00 94 1017.2
20260508055520 3 5 0.0 3.2 0.00 0.00 0.00 93 1017.1
20260508054517 3 18 0.0 1.6 0.00 0.00 0.00 93 1017.0
20260508053517 3 41 0.0 3.2 0.00 0.00 0.00 93 1017.1
20260508052517 3 6 0.0 3.2 0.00 0.00 0.00 93 1016.9
20260508051537 4 17 0.0 1.6 0.00 0.00 0.00 93 1017.0
20260508050518 4 25 0.0 1.6 0.00 0.00 0.00 93 1017.0
20260508045518 4 44 0.0 3.2 0.00 0.00 0.00 93 1016.9
20260508044518 4 24 0.0 1.6 0.00 0.00 0.00 93 1017.0
20260508043518 4 22 0.0 1.6 0.00 0.00 0.00 93 1017.0
20260508042518 3 16 0.0 1.6 0.00 0.00 0.00 92 1017.0
20260508041518 4 27 0.0 1.6 0.00 0.00 0.00 92 1016.9
20260508040518 4 10 0.0 1.6 0.00 0.00 0.00 92 1016.8
20260508035518 4 19 0.0 1.6 0.00 0.00 0.00 92 1016.9
20260508034516 3 2 0.0 1.6 0.00 0.00 0.00 91 1016.9
20260508033519 3 18 0.0 1.6 0.00 0.00 0.00 89 1017.0
20260508032519 4 9 0.0 1.6 0.00 0.00 0.00 91 1017.0
20260508031519 4 9 0.0 1.6 0.00 0.00 0.00 90 1016.9
20260508030516 4 15 0.0 1.6 0.00 0.00 0.00 89 1016.9
20260508025516 4 6 0.0 1.6 0.00 0.00 0.00 87 1016.9
20260508024519 4 28 0.0 0.0 0.00 0.00 0.00 86 1016.8
20260508023700 5 41 0.0 1.6 0.00 0.00 0.00 85 1016.8
20260508022517 5 3 0.0 3.2 0.00 0.00 0.00 86 1016.7
20260508021517 5 33 0.0 1.6 0.00 0.00 0.00 85 1016.6
20260508020517 5 16 0.0 3.2 0.00 0.00 0.00 82 1016.7
20260508015520 5 26 0.0 1.6 0.00 0.00 0.00 80 1016.6
20260508014517 6 24 0.0 1.6 0.00 0.00 0.00 80 1016.6
20260508013517 6 18 0.0 1.6 0.00 0.00 0.00 77 1016.5
20260508012517 6 18 0.0 1.6 0.00 0.00 0.00 73 1016.4
20260508011518 7 27 0.0 1.6 0.00 0.00 0.00 70 1016.4
20260508010538 7 33 0.0 1.6 0.00 0.00 0.00 67 1016.5
20260508005518 8 47 0.0 0.0 0.00 0.00 0.00 69 1016.4
20260508004518 9 39 0.0 1.6 0.00 0.00 0.00 66 1016.3
20260508003518 10 10 0.0 1.6 0.00 0.00 0.00 64 1016.3